STARLINK-31869, 60196

Orbit data source: Space-Track

STARLINK-31869, 60196 is a payload satellite owned by SpaceX/Seattle (US) in LEO that was launched on Wed, 03 Jul 2024 UTC via an FALCON 9 launch vehicle from the Air Force Eastern Test Range (AFETR). Payload-class satellites include a variety of spacecraft equipped with specific instruments for various scientific and technological missions. These include communications satellites like Starlink; space stations such as the ISS; scientific satellites like the Hubble; Earth observation satellites from companies like Planet Labs, Umbra, and HawkEye 360; GPS; miniature CubeSats for education and research; and military/defense satellites.

Loading next visibility...
Identifier
60196, 2024-124P
Orbit
LEO
Country
Flag of USUS
Related business
Manufacturer
SpaceX/Seattle
Mission
Operational Commercial Communications
Bus & Motor
STARLINK V2M, Unknown motor
Mass
730 kg wet, ~700 kg dry
Launch date (UTC)
2024-07-03 (1 year ago)
Launch vehicle
FALCON 9
Launch site
Air Force Eastern Test Range (AFETR)
Object type
Payload
Rocket body
Debris
Shape & HBR
Box + 2 Pan, 14.5 m
Radar Cross Section
36.964 m², Large (>1 m²)

Expand to show TLE details & history
Last TLE update: 23 hours ago

TLE from 23 hours ago
0 STARLINK-31869
1 60196U 24124P   25257.44905251 -.00000042  00000-0  10716-4 0  9992
2 60196  53.1613  61.0328 0001253  91.2672 268.8472 15.30191951 67310
Epoch: 2025-09-14T10:46Z
TLE epoch observation values (Epoch: 2025-09-14T10:46:38.136Z)
Latitude
-0.00007°
Longitude
-94.29405°
Altitude
476.156 km
Speed
7.629 km/s
True Right ascension
04h 04m 07s
True Declination
0° 00' 00"
Sunlit
Object was in partial shadow at epoch
Visualization orbit readout
Latitude
Unknown
Longitude
Unknown
Altitude
Unknown
Speed
Unknown
Apparent Right ascension
Unknown
Apparent Declination
Unknown
Sunlit
N/A
Visualization observer readout
Local Sidereal Time
02:06:37
Azimuth
Unknown
Elevation
Unknown
Doppler factor
Unknown
Orbital elements
Apogee altitude
476.354 km
Perigee altitude
474.637 km
Semi-major axis
6,853.632 km
Eccentricity
0.00013
Inclination
53.1613°
RAAN
61.0328°
Arg. of periapsis
91.2672°
True anomaly
268.83284°
Mean anomaly
268.8472°
Eccentric anomaly
268.84002°
Mean motion
3.82527 °/min
Orbital period
94.11 mins
BSTAR
0.000010716
Loading maneuver chart data...
Computing Atmospheric mass density...
Loading historical data...
Loading historical data...
Loading historical data...
Loading historical data...
Loading historical data...
Loading historical data...
Loading historical data...

Documentation

Showing up to 5 results
|